Galileo — SX2040 — position and weather

sailwx.info

Track history (hours):
 
Tides and Currents Weather Stations Pressure Air Temp Water Temp Dewpoint Dewpoint Depression Visibility Wind Speed Wind Dir Waves Ship Positions

Galileo

Last reported at 2014-Jul-29 04:33 UTC. Time now 2014-Jul-29 04:48 UTC.
Position N 36°47' E 025°08'.

Length 40 m; draft 3 m.

Type: Passenger vessel. MMSI: 239299000.

Date/timePositionNaut miles runAvg speedWind from/ knotsBaromVisibWave heightAir tempDewpointWater temp
2014-Jul-29 04:33N 36°47' E 025°08'9 9.2
2014-Jul-29 03:33N 36°39' E 025°15'9 9.3
2014-Jul-29 02:33N 36°31' E 025°20'6 0.3
2014-Jul-28 05:17N 36°26' E 025°23'7 9.3
2014-Jul-28 04:33N 36°31' E 025°18'8 8.4
2014-Jul-28 03:33N 36°35' E 025°08'9 8.9
2014-Jul-28 02:33N 36°37' E 024°57'0 0.2
2014-Jul-28 01:06N 36°37' E 024°57'0 0.0
2014-Jul-28 00:09N 36°37' E 024°57'0 0.0
2014-Jul-27 19:21N 36°37' E 024°57'0 0.0
2014-Jul-27 13:29N 36°37' E 024°57'7 7.6
2014-Jul-27 12:33N 36°41' E 024°50'10 9.7
2014-Jul-27 11:33N 36°44' E 024°39'6 1.1
2014-Jul-27 06:33N 36°49' E 024°37'71 4.6
2014-Jul-26 15:04N 37°35' E 023°28'14 9.4
2014-Jul-26 13:33N 37°48' E 023°36'8 8.4
2014-Jul-26 12:34N 37°56' E 023°39'0 0.0
2014-Jul-26 11:33N 37°56' E 023°39'0 0.0
2014-Jul-26 10:33N 37°56' E 023°39'0 0.0
2014-Jul-26 09:33N 37°56' E 023°39'0 0.0
2014-Jul-26 08:33N 37°56' E 023°39'0 0.0
2014-Jul-26 07:33N 37°56' E 023°39'0 0.0
2014-Jul-26 06:33N 37°56' E 023°39'0 0.0
2014-Jul-26 05:33N 37°56' E 023°39'0 0.0
2014-Jul-26 04:33N 37°56' E 023°39'0 0.0
2014-Jul-26 03:33N 37°56' E 023°39'0 0.0
2014-Jul-26 02:33N 37°56' E 023°39'0 0.0
2014-Jul-26 01:33N 37°56' E 023°39'0 0.0
2014-Jul-26 00:33N 37°56' E 023°39'0 0.0
2014-Jul-25 23:33N 37°56' E 023°39'0 0.0
2014-Jul-25 22:33N 37°56' E 023°39'0 0.0
2014-Jul-25 21:33N 37°56' E 023°39'0 0.0
2014-Jul-25 20:32N 37°56' E 023°39'0 0.0
2014-Jul-25 19:33N 37°56' E 023°39'0 0.0
2014-Jul-25 18:33N 37°56' E 023°39'0 0.0
2014-Jul-25 17:33N 37°56' E 023°39'0 0.0
2014-Jul-25 16:33N 37°56' E 023°39'1 0.8
2014-Jul-25 15:33N 37°55' E 023°40'68 5.6
2014-Jul-25 03:33N 37°28' E 024°58'2 1.6
2014-Jul-25 02:33N 37°26' E 024°57'0 0.0
2014-Jul-25 01:32N 37°26' E 024°57'0 0.0
2014-Jul-25 00:33N 37°26' E 024°57'0 0.0
2014-Jul-24 23:33N 37°26' E 024°57'0 0.0
2014-Jul-24 22:33N 37°26' E 024°57'0 0.0
2014-Jul-24 21:30N 37°26' E 024°57'0 0.0
2014-Jul-24 20:33N 37°26' E 024°57'0 0.0
2014-Jul-24 19:33N 37°26' E 024°57'0 0.0
2014-Jul-24 18:32N 37°26' E 024°57'0 0.0
2014-Jul-24 17:32N 37°26' E 024°57'0 0.0
2014-Jul-24 16:33N 37°26' E 024°57'0 0.0
2014-Jul-24 15:33N 37°26' E 024°57'0 0.0
2014-Jul-24 14:32N 37°26' E 024°57'0 0.0
2014-Jul-24 13:33N 37°26' E 024°57'0 0.0
2014-Jul-24 12:32N 37°26' E 024°57'0 0.0
2014-Jul-24 11:33N 37°26' E 024°57'0 0.0
2014-Jul-24 10:32N 37°26' E 024°57'0 0.0
2014-Jul-24 09:32N 37°26' E 024°57'2 1.8
2014-Jul-24 08:32N 37°25' E 024°59'0 0.0
2014-Jul-24 07:34N 37°25' E 024°59'0 0.3
2014-Jul-24 06:33N 37°25' E 024°59'9 9.6
2014-Jul-24 05:33N 37°27' E 025°11'7 7.1
2014-Jul-24 04:32N 37°28' E 025°20'0 0.0
2014-Jul-24 03:32N 37°28' E 025°20'0 0.0
2014-Jul-24 02:32N 37°28' E 025°20'0 0.0
2014-Jul-24 01:33N 37°28' E 025°20'0 0.0
2014-Jul-24 00:32N 37°28' E 025°20'0 0.0
2014-Jul-23 23:32N 37°28' E 025°20'0 0.0
2014-Jul-23 22:32N 37°28' E 025°20'0 0.0
2014-Jul-23 21:32N 37°28' E 025°20'0 0.0
2014-Jul-23 20:33N 37°28' E 025°20'0 0.0
2014-Jul-23 19:32N 37°28' E 025°20'0 0.0
2014-Jul-23 18:31N 37°28' E 025°20'0 0.0
2014-Jul-23 17:31N 37°28' E 025°20'0 0.0
2014-Jul-23 16:32N 37°28' E 025°20'0 0.0
2014-Jul-23 15:33N 37°28' E 025°20'0 0.0
2014-Jul-23 14:33N 37°28' E 025°20'0 0.0
2014-Jul-23 13:32N 37°28' E 025°20'0 0.0
2014-Jul-23 12:33N 37°28' E 025°20'0 0.0
2014-Jul-23 11:32N 37°28' E 025°20'0 0.0
2014-Jul-23 10:32N 37°28' E 025°20'0 0.0
2014-Jul-23 09:33N 37°28' E 025°20'0 0.0
2014-Jul-23 08:32N 37°28' E 025°20'0 0.0
2014-Jul-23 07:33N 37°28' E 025°20'0 0.0
2014-Jul-23 06:33N 37°28' E 025°20'0 0.0
2014-Jul-23 05:33N 37°28' E 025°20'4 4.0
2014-Jul-23 04:33N 37°24' E 025°17'10 9.7
2014-Jul-23 03:33N 37°15' E 025°13'11 9.0
2014-Jul-23 02:22N 37°05' E 025°08'0 0.5
2014-Jul-23 01:30N 37°05' E 025°09'0 0.0
2014-Jul-22 22:10N 37°05' E 025°09'0 0.0
2014-Jul-22 21:32N 37°05' E 025°09'0 0.0
2014-Jul-22 20:30N 37°05' E 025°09'0 0.0
2014-Jul-22 19:33N 37°05' E 025°09'0 0.0
2014-Jul-22 18:32N 37°05' E 025°09'0 0.0
2014-Jul-22 17:33N 37°05' E 025°09'0 0.0
2014-Jul-22 16:33N 37°05' E 025°09'0 0.0
2014-Jul-22 15:33N 37°05' E 025°09'0 0.0
2014-Jul-22 14:32N 37°05' E 025°09'0 0.0
2014-Jul-22 12:32N 37°05' E 025°09'0 0.0
2014-Jul-22 11:20N 37°05' E 025°09'0 0.0
2014-Jul-22 10:32N 37°05' E 025°09'0 0.0
2014-Jul-22 09:31N 37°05' E 025°09'1 0.7
2014-Jul-22 08:32N 37°06' E 025°08'0 0.0
2014-Jul-22 07:30N 37°06' E 025°08'9 9.3
2014-Jul-22 06:33N 37°01' E 024°59'8 7.4
2014-Jul-22 05:32N 36°53' E 025°01'10 9.8
2014-Jul-22 04:32N 36°46' E 025°09'9 9.5
2014-Jul-22 03:33N 36°38' E 025°15'10 9.7
2014-Jul-22 02:33N 36°29' E 025°21'2 0.1
2014-Jul-21 04:33N 36°28' E 025°21'9 9.0
2014-Jul-21 03:33N 36°33' E 025°13'9 9.1
2014-Jul-21 02:33N 36°34' E 025°01'29 4.9
2014-Jul-20 20:29N 36°43' E 024°27'0 0.0
2014-Jul-20 19:03N 36°43' E 024°27'0 0.0
2014-Jul-20 18:25N 36°43' E 024°27'0 0.0
2014-Jul-20 17:27N 36°43' E 024°27'0 0.0
2014-Jul-20 16:33N 36°43' E 024°27'0 0.0
2014-Jul-20 15:28N 36°43' E 024°27'0 0.0
2014-Jul-20 14:29N 36°43' E 024°27'0 0.0
2014-Jul-20 13:27N 36°43' E 024°27'3 3.1
2014-Jul-20 12:27N 36°45' E 024°24'8 6.4
2014-Jul-20 11:15N 36°39' E 024°19'1 1.8
2014-Jul-20 10:32N 36°39' E 024°20'0 0.0
2014-Jul-20 09:33N 36°39' E 024°20'0 0.0
2014-Jul-20 08:31N 36°39' E 024°20'0 0.0
2014-Jul-20 07:11N 36°39' E 024°20'0 0.2
2014-Jul-20 06:29N 36°39' E 024°20'78 4.6
2014-Jul-19 13:32N 37°48' E 023°36'8 8.2
2014-Jul-19 12:33N 37°56' E 023°39'0 0.0
2014-Jul-19 11:33N 37°56' E 023°39'0 0.0
2014-Jul-19 10:33N 37°56' E 023°39'0 0.0
2014-Jul-19 09:33N 37°56' E 023°39'0 0.0
2014-Jul-19 08:33N 37°56' E 023°39'0 0.0
2014-Jul-19 07:33N 37°56' E 023°39'0 0.0
2014-Jul-19 06:33N 37°56' E 023°39'0 0.0
2014-Jul-19 05:33N 37°56' E 023°39'0 0.0
2014-Jul-19 04:33N 37°56' E 023°39'  
Track history (hours):
 
Tides and Currents Weather Stations Pressure Air Temp Water Temp Dewpoint Dewpoint Depression Visibility Wind Speed Wind Dir Waves Ship Positions

Galileo

Last reported at 2014-Jul-29 04:33 UTC. Time now 2014-Jul-29 04:48 UTC.
Position N 36°47' E 025°08'.

Length 40 m; draft 3 m.

Type: Passenger vessel. MMSI: 239299000.

Date/timePositionNaut miles runAvg speedWind from/ knotsBaromVisibWave heightAir tempDewpointWater temp
2014-Jul-29 04:33N 36°47' E 025°08'9 9.2
2014-Jul-29 03:33N 36°39' E 025°15'9 9.3
2014-Jul-29 02:33N 36°31' E 025°20'6 0.3
2014-Jul-28 05:17N 36°26' E 025°23'7 9.3
2014-Jul-28 04:33N 36°31' E 025°18'8 8.4
2014-Jul-28 03:33N 36°35' E 025°08'9 8.9
2014-Jul-28 02:33N 36°37' E 024°57'0 0.2
2014-Jul-28 01:06N 36°37' E 024°57'0 0.0
2014-Jul-28 00:09N 36°37' E 024°57'0 0.0
2014-Jul-27 19:21N 36°37' E 024°57'0 0.0
2014-Jul-27 13:29N 36°37' E 024°57'7 7.6
2014-Jul-27 12:33N 36°41' E 024°50'10 9.7
2014-Jul-27 11:33N 36°44' E 024°39'6 1.1
2014-Jul-27 06:33N 36°49' E 024°37'71 4.6
2014-Jul-26 15:04N 37°35' E 023°28'14 9.4
2014-Jul-26 13:33N 37°48' E 023°36'8 8.4
2014-Jul-26 12:34N 37°56' E 023°39'0 0.0
2014-Jul-26 11:33N 37°56' E 023°39'0 0.0
2014-Jul-26 10:33N 37°56' E 023°39'0 0.0
2014-Jul-26 09:33N 37°56' E 023°39'0 0.0
2014-Jul-26 08:33N 37°56' E 023°39'0 0.0
2014-Jul-26 07:33N 37°56' E 023°39'0 0.0
2014-Jul-26 06:33N 37°56' E 023°39'0 0.0
2014-Jul-26 05:33N 37°56' E 023°39'0 0.0
2014-Jul-26 04:33N 37°56' E 023°39'0 0.0
2014-Jul-26 03:33N 37°56' E 023°39'0 0.0
2014-Jul-26 02:33N 37°56' E 023°39'0 0.0
2014-Jul-26 01:33N 37°56' E 023°39'0 0.0
2014-Jul-26 00:33N 37°56' E 023°39'0 0.0
2014-Jul-25 23:33N 37°56' E 023°39'0 0.0
2014-Jul-25 22:33N 37°56' E 023°39'0 0.0
2014-Jul-25 21:33N 37°56' E 023°39'0 0.0
2014-Jul-25 20:32N 37°56' E 023°39'0 0.0
2014-Jul-25 19:33N 37°56' E 023°39'0 0.0
2014-Jul-25 18:33N 37°56' E 023°39'0 0.0
2014-Jul-25 17:33N 37°56' E 023°39'0 0.0
2014-Jul-25 16:33N 37°56' E 023°39'1 0.8
2014-Jul-25 15:33N 37°55' E 023°40'68 5.6
2014-Jul-25 03:33N 37°28' E 024°58'2 1.6
2014-Jul-25 02:33N 37°26' E 024°57'0 0.0
2014-Jul-25 01:32N 37°26' E 024°57'0 0.0
2014-Jul-25 00:33N 37°26' E 024°57'0 0.0
2014-Jul-24 23:33N 37°26' E 024°57'0 0.0
2014-Jul-24 22:33N 37°26' E 024°57'0 0.0
2014-Jul-24 21:30N 37°26' E 024°57'0 0.0
2014-Jul-24 20:33N 37°26' E 024°57'0 0.0
2014-Jul-24 19:33N 37°26' E 024°57'0 0.0
2014-Jul-24 18:32N 37°26' E 024°57'0 0.0
2014-Jul-24 17:32N 37°26' E 024°57'0 0.0
2014-Jul-24 16:33N 37°26' E 024°57'0 0.0
2014-Jul-24 15:33N 37°26' E 024°57'0 0.0
2014-Jul-24 14:32N 37°26' E 024°57'0 0.0
2014-Jul-24 13:33N 37°26' E 024°57'0 0.0
2014-Jul-24 12:32N 37°26' E 024°57'0 0.0
2014-Jul-24 11:33N 37°26' E 024°57'0 0.0
2014-Jul-24 10:32N 37°26' E 024°57'0 0.0
2014-Jul-24 09:32N 37°26' E 024°57'2 1.8
2014-Jul-24 08:32N 37°25' E 024°59'0 0.0
2014-Jul-24 07:34N 37°25' E 024°59'0 0.3
2014-Jul-24 06:33N 37°25' E 024°59'9 9.6
2014-Jul-24 05:33N 37°27' E 025°11'7 7.1
2014-Jul-24 04:32N 37°28' E 025°20'0 0.0
2014-Jul-24 03:32N 37°28' E 025°20'0 0.0
2014-Jul-24 02:32N 37°28' E 025°20'0 0.0
2014-Jul-24 01:33N 37°28' E 025°20'0 0.0
2014-Jul-24 00:32N 37°28' E 025°20'0 0.0
2014-Jul-23 23:32N 37°28' E 025°20'0 0.0
2014-Jul-23 22:32N 37°28' E 025°20'0 0.0
2014-Jul-23 21:32N 37°28' E 025°20'0 0.0
2014-Jul-23 20:33N 37°28' E 025°20'0 0.0
2014-Jul-23 19:32N 37°28' E 025°20'0 0.0
2014-Jul-23 18:31N 37°28' E 025°20'0 0.0
2014-Jul-23 17:31N 37°28' E 025°20'0 0.0
2014-Jul-23 16:32N 37°28' E 025°20'0 0.0
2014-Jul-23 15:33N 37°28' E 025°20'0 0.0
2014-Jul-23 14:33N 37°28' E 025°20'0 0.0
2014-Jul-23 13:32N 37°28' E 025°20'0 0.0
2014-Jul-23 12:33N 37°28' E 025°20'0 0.0
2014-Jul-23 11:32N 37°28' E 025°20'0 0.0
2014-Jul-23 10:32N 37°28' E 025°20'0 0.0
2014-Jul-23 09:33N 37°28' E 025°20'0 0.0
2014-Jul-23 08:32N 37°28' E 025°20'0 0.0
2014-Jul-23 07:33N 37°28' E 025°20'0 0.0
2014-Jul-23 06:33N 37°28' E 025°20'0 0.0
2014-Jul-23 05:33N 37°28' E 025°20'4 4.0
2014-Jul-23 04:33N 37°24' E 025°17'10 9.7
2014-Jul-23 03:33N 37°15' E 025°13'11 9.0
2014-Jul-23 02:22N 37°05' E 025°08'0 0.5
2014-Jul-23 01:30N 37°05' E 025°09'0 0.0
2014-Jul-22 22:10N 37°05' E 025°09'0 0.0
2014-Jul-22 21:32N 37°05' E 025°09'0 0.0
2014-Jul-22 20:30N 37°05' E 025°09'0 0.0
2014-Jul-22 19:33N 37°05' E 025°09'0 0.0
2014-Jul-22 18:32N 37°05' E 025°09'0 0.0
2014-Jul-22 17:33N 37°05' E 025°09'0 0.0
2014-Jul-22 16:33N 37°05' E 025°09'0 0.0
2014-Jul-22 15:33N 37°05' E 025°09'0 0.0
2014-Jul-22 14:32N 37°05' E 025°09'0 0.0
2014-Jul-22 12:32N 37°05' E 025°09'0 0.0
2014-Jul-22 11:20N 37°05' E 025°09'0 0.0
2014-Jul-22 10:32N 37°05' E 025°09'0 0.0
2014-Jul-22 09:31N 37°05' E 025°09'1 0.7
2014-Jul-22 08:32N 37°06' E 025°08'0 0.0
2014-Jul-22 07:30N 37°06' E 025°08'9 9.3
2014-Jul-22 06:33N 37°01' E 024°59'8 7.4
2014-Jul-22 05:32N 36°53' E 025°01'10 9.8
2014-Jul-22 04:32N 36°46' E 025°09'9 9.5
2014-Jul-22 03:33N 36°38' E 025°15'10 9.7
2014-Jul-22 02:33N 36°29' E 025°21'2 0.1
2014-Jul-21 04:33N 36°28' E 025°21'9 9.0
2014-Jul-21 03:33N 36°33' E 025°13'9 9.1
2014-Jul-21 02:33N 36°34' E 025°01'29 4.9
2014-Jul-20 20:29N 36°43' E 024°27'0 0.0
2014-Jul-20 19:03N 36°43' E 024°27'0 0.0
2014-Jul-20 18:25N 36°43' E 024°27'0 0.0
2014-Jul-20 17:27N 36°43' E 024°27'0 0.0
2014-Jul-20 16:33N 36°43' E 024°27'0 0.0
2014-Jul-20 15:28N 36°43' E 024°27'0 0.0
2014-Jul-20 14:29N 36°43' E 024°27'0 0.0
2014-Jul-20 13:27N 36°43' E 024°27'3 3.1
2014-Jul-20 12:27N 36°45' E 024°24'8 6.4
2014-Jul-20 11:15N 36°39' E 024°19'1 1.8
2014-Jul-20 10:32N 36°39' E 024°20'0 0.0
2014-Jul-20 09:33N 36°39' E 024°20'0 0.0
2014-Jul-20 08:31N 36°39' E 024°20'0 0.0
2014-Jul-20 07:11N 36°39' E 024°20'0 0.2
2014-Jul-20 06:29N 36°39' E 024°20'78 4.6
2014-Jul-19 13:32N 37°48' E 023°36'8 8.2
2014-Jul-19 12:33N 37°56' E 023°39'0 0.0
2014-Jul-19 11:33N 37°56' E 023°39'0 0.0
2014-Jul-19 10:33N 37°56' E 023°39'0 0.0
2014-Jul-19 09:33N 37°56' E 023°39'0 0.0
2014-Jul-19 08:33N 37°56' E 023°39'0 0.0
2014-Jul-19 07:33N 37°56' E 023°39'0 0.0
2014-Jul-19 06:33N 37°56' E 023°39'0 0.0
2014-Jul-19 05:33N 37°56' E 023°39'0 0.0
2014-Jul-19 04:33N 37°56' E 023°39'  

Dump ship's entire track history